This demonstration page uses our WeatherBlox Daily Observations layout. Learn more.

39.92423, -83.80882

Hourly Observations for July 18, 2016

Temp ( °F °C ) Dew Point ( °F °C ) Humidity (%) Winds ( mph kmh ) Pressure ( in mb ) Visibility ( mi km ) Precip ( " mm )
12:56 am 00:56 Partly Cloudy 76 24.4 70 21.1 82 82 SW 8 13 30.13 1020 10 16.0934 0 0
1:56 am 01:56 Mostly Clear 75 23.9 70 21.1 84 84 SW 8 13 30.12 1020 10 16.0934 0 0
2:56 am 02:56 Clear 74 23.3 70 21.1 88 88 SW 7 11 30.11 1020 10 16.0934 0 0
3:56 am 03:56 Clear 74 23.3 70 21.1 88 88 SW 6 9 30.11 1020 10 16.0934 0 0
4:56 am 04:56 Clear 75 23.9 70 21.1 84 84 SW 10 17 30.09 1019 10 16.0934 0 0
5:56 am 05:56 Clear 75 23.9 70 21.1 84 84 SW 9 15 30.1 1019 10 16.0934 0 0
6:47 am 06:47 Cloudy with Light Rain 73 23 72 22 94 94 undefined N/A N/A 10 16.0934 0 0
6:56 am 06:56 Cloudy with Nearby Thunderstorms 74 23.3 70 21.1 88 88 NW 17 28 30.14 1021 10 16.0934 0 0
7:30 am 07:30 Cloudy with Nearby Thunderstorms 70 21 68 20 94 94 NW 8 13 30.18 1022 10 16.0934 0.18 4.572
7:51 am 07:51 Cloudy with Rain 70 21 68 20 94 94 NW 9 15 30.18 1022 10 16.0934 0.25 6.35
7:56 am 07:56 Cloudy with Nearby Thunderstorms 69 20.6 67 19.4 93 93 WNW 7 11 30.19 1023 10 16.0934 0.26 6.604
8:45 am 08:45 Mostly Cloudy with Light Rain 70 21 66 19 88 88 SW 6 9 30.21 1023 10 16.0934 0.11 2.794
8:56 am 08:56 Mostly Cloudy with Light Rain 69 20.6 67 19.4 93 93 WSW 9 15 30.21 1023 10 16.0934 0.12 3.048
9:26 am 09:26 Cloudy with Nearby Thunderstorms 70 21 64 18 83 83 WNW 17 28 30.21 1023 10 16.0934 0.02 0.508
9:38 am 09:38 Cloudy with Light Rain 70 21 63 17 78 78 undefined N/A N/A 10 16.0934 0.03 0.762
9:56 am 09:56 Cloudy with Light Rain 68 20 64 17.8 87 87 undefined N/A N/A 10 16.0934 0.04 1.016
10:56 am 10:56 Sunny 70 21.1 67 19.4 90 90 SW 15 24 30.14 1021 10 16.0934 0 0.0254
11:56 am 11:56 Sunny 77 25 68 20 74 74 WSW 10 17 30.16 1022 10 16.0934 0 0
12:56 pm 12:56 Sunny 80 26.7 69 20.6 69 69 undefined N/A 30.17 1022 10 16.0934 0 0
1:56 pm 13:56 Sunny 82 27.8 67 19.4 60 60 W 14 22 30.15 1021 10 16.0934 0 0
2:56 pm 14:56 Sunny 84 28.9 68 20 59 59 W 13 20 30.16 1021 10 16.0934 0 0
3:56 pm 15:56 Sunny 85 29.4 70 21.1 61 61 W 12 19 30.15 1021 10 16.0934 0 0
4:56 pm 16:56 Sunny 85 29.4 71 21.7 63 63 W 10 17 30.14 1021 10 16.0934 0 0
5:56 pm 17:56 Partly Cloudy 82 27.8 72 22.2 72 72 W 8 13 30.13 1020 10 16.0934 0 0
6:56 pm 18:56 Sunny 80 26.7 72 22.2 76 76 W 9 15 30.14 1021 10 16.0934 0 0
7:37 pm 19:37 Mostly Cloudy 79 26 72 22 79 79 WNW 10 17 30.15 1021 10 16.0934 0 0
7:46 pm 19:46 Mostly Sunny 81 27 72 22 74 74 WNW 14 22 30.09 1019 10 16.0934 0 0
7:56 pm 19:56 Partly Cloudy 79 26.1 71 21.7 77 77 WNW 10 17 30.14 1021 10 16.0934 0 0
8:56 pm 20:56 Sunny 75 23.9 71 21.7 88 88 W 5 7 30.15 1021 10 16.0934 0 0
9:56 pm 21:56 Mostly Cloudy 75 23.9 71 21.7 88 88 WNW 7 11 30.17 1022 10 16.0934 0 0
10:56 pm 22:56 Cloudy 75 23.9 71 21.7 88 88 WNW 6 9 30.19 1022 10 16.0934 0 0
11:56 pm 23:56 Clear 73 22.8 70 21.1 90 90 NW 5 7 30.2 1023 10 16.0934 0 0

Powered by AerisWeather